Lid_Strength_Index
-1 -0 2 5 10 11 13 10 8 9 10 8 7 8 9 8 8 11 4 2 0 0 -0 -1 -1 -2 -2 -2 -2 -2 -2 -2 -1 -1 -1 -1 -2 -2 -2 -1 -1 -1 -1 -2 -2 -2 -2 -2 -2
1 3 6 6 12 16 13 8 8 10 8 7 7 8 9 8 5 4 3 1 0 0 0 -0 -1 -1 -2 -2 -2 -2 -1 -1 -1 -1 -1 -1 -1 -2 -2 -2 -2 -1 -1 -1 -2 -2 -2 -2 -2
1 3 6 9 12 14 13 8 7 8 7 8 8 6 6 7 4 3 2 1 0 0 -0 -0 -1 -1 -1 -1 -1 -1 -1 -1 -1 -1 -1 -1 -2 -2 -2 -2 -2 -2 -2 -2 -2 -2 -2 -2 -2
3 4 5 11 12 9 9 7 7 8 8 7 7 7 5 3 4 2 1 1 1 2 -0 -1 -1 -1 -1 -1 -1 -1 -1 -1 -1 -1 -2 -2 -2 -2 -2 -2 -2 -2 -2 -2 -2 -2 -2 -2 -2
3 5 10 12 11 8 7 6 8 9 8 8 7 7 7 4 2 2 2 2 3 1 0 -0 -1 -1 -1 -1 -1 -1 -1 -1 -1 -1 -1 -1 -1 -1 -1 -1 -2 -2 -2 -2 -2 -2 -2 -1 -1
6 7 12 13 10 7 7 6 6 8 7 7 7 6 7 4 3 3 2 2 1 1 0 0 -1 -2 -2 -2 -2 -1 -1 -1 -0 -1 -1 -1 -1 -1 -1 -2 -2 -2 -2 -2 -2 -2 -2 -2 -1
7 9 11 10 10 8 7 6 7 7 8 8 7 8 6 5 3 3 2 2 2 1 0 0 0 -1 -2 -2 -1 -1 -1 -1 -1 -1 -1 -1 -1 -1 -2 -2 -2 -2 -2 -2 -2 -2 -2 -2 -2
5 8 10 9 10 9 6 6 6 6 7 5 5 8 8 5 3 3 3 3 3 2 2 1 0 1 1 0 -2 -2 -2 -2 -1 -1 -1 -1 -1 -1 -1 -2 -2 -2 -2 -2 -2 -2 -2 -2 -2
4 10 11 10 9 8 7 8 6 5 6 5 5 6 4 3 3 4 5 4 4 3 3 3 2 1 1 0 -0 -1 -2 -2 -1 -1 -1 -0 1 1 -0 -1 -1 -2 -2 -2 -1 -1 -2 -2 -2
7 9 9 6 6 7 7 7 7 6 6 6 6 4 3 3 4 5 5 5 5 4 3 2 1 1 1 -0 1 1 0 1 1 1 0 1 1 1 -0 -1 -2 -1 -1 -2 -1 -1 -1 -1 1
6 9 6 6 5 5 6 8 6 7 7 6 7 6 5 4 5 5 5 5 3 3 2 2 2 1 1 1 1 2 2 1 1 1 1 1 1 1 2 1 0 1 -1 0 -0 -0 0 1 1
8 6 6 5 5 6 7 7 7 6 6 4 5 4 5 5 5 5 5 4 3 3 3 1 1 1 2 1 2 1 1 1 1 1 1 2 2 2 1 1 1 1 0 1 1 1 1 1 1
7 6 5 5 5 6 6 7 6 6 4 4 5 5 5 5 5 4 4 3 3 3 2 2 2 1 1 2 1 1 1 1 1 1 1 1 2 1 1 1 1 1 1 1 1 1 1 1 1
6 6 6 5 6 6 7 6 6 5 4 5 5 6 6 6 4 4 3 3 3 3 3 2 2 1 1 1 1 1 1 1 1 1 1 0 0 0 1 1 1 1 1 1 1 1 1 1 2
7 8 7 6 6 7 6 7 7 5 5 5 6 6 6 5 4 4 4 3 3 3 2 2 2 2 2 2 2 1 1 1 1 1 1 -0 -0 0 1 1 1 1 1 1 1 1 1 1 1
9 9 11 8 7 6 7 10 7 5 6 6 5 5 5 6 5 4 3 3 3 2 2 2 1 2 2 2 1 1 1 1 1 1 1 0 -0 -0 1 1 1 1 1 1 1 1 1 1 2
10 13 12 9 6 7 7 9 7 6 6 6 6 6 5 6 5 3 2 2 3 3 2 2 2 2 2 2 1 1 1 2 1 1 2 1 1 -0 1 1 1 1 1 1 1 1 1 2 2
13 12 11 10 8 8 8 8 7 6 6 7 6 6 5 5 5 3 3 2 2 2 2 2 2 2 2 2 1 2 2 2 1 1 2 1 1 -0 1 1 1 1 1 2 1 2 2 2 3
11 11 10 8 7 8 8 8 7 7 7 7 7 6 6 5 4 3 3 2 2 2 2 2 2 2 2 2 3 3 3 2 1 1 1 1 1 1 1 1 1 1 2 2 1 2 2 3 3
10 11 11 9 7 8 8 9 7 6 7 7 6 6 7 5 4 4 3 3 3 2 2 2 3 2 2 2 2 2 2 2 1 1 1 1 0 1 0 1 2 1 2 1 2 2 3 3 2
10 11 11 10 8 8 9 10 9 7 7 6 6 6 5 5 5 4 4 3 3 3 3 2 2 2 2 2 2 2 2 2 2 2 2 1 1 0 1 1 1 1 2 2 2 2 3 4 3
12 8 8 9 10 13 9 15 11 9 8 7 6 7 6 5 5 4 4 4 4 3 2 2 2 2 2 2 2 3 3 4 2 2 1 1 0 1 1 1 1 2 1 2 1 1 2 2 3
10 7 8 9 10 11 11 14 12 9 9 8 8 7 6 5 5 5 4 4 3 2 2 3 2 2 2 2 2 3 3 2 2 2 2 2 1 1 0 1 1 2 2 2 1 2 2 1 2
6 8 9 9 11 16 12 13 12 11 9 9 8 7 6 5 5 4 4 3 3 3 3 2 2 3 2 2 2 2 2 2 2 3 3 2 1 1 1 1 1 1 2 2 2 1 1 1 2
8 11 14 17 16 17 11 12 12 9 8 8 7 6 6 5 5 5 4 4 4 4 3 3 3 3 3 2 2 2 3 2 3 2 3 2 2 2 2 2 2 1 1 1 1 1 1 1 2
10 11 14 19 19 15 11 14 12 8 7 7 6 6 5 5 5 5 4 4 4 3 3 3 3 3 3 3 2 2 2 2 2 2 2 2 2 2 1 1 1 1 1 1 1 2 1 1 1
10 11 9 13 13 15 13 11 9 8 9 7 7 6 6 6 5 5 4 5 4 4 3 3 3 3 2 2 2 2 2 2 2 2 2 2 2 1 1 1 2 1 1 1 1 1 1 1 1
9 8 13 14 17 19 14 13 13 10 10 8 8 7 7 6 5 5 4 4 4 3 3 3 3 3 2 2 2 2 1 2 1 1 1 2 2 2 2 1 2 1 1 1 1 1 2 2 2
10 10 12 12 13 17 18 15 9 9 8 8 8 7 6 6 5 5 5 4 4 3 3 3 3 3 3 3 3 2 2 2 1 1 1 2 2 1 2 1 1 1 1 1 1 1 1 1 1
8 10 11 13 15 13 14 14 8 8 8 7 7 6 6 6 5 5 4 4 4 4 3 3 3 3 2 2 2 2 2 2 2 1 1 2 2 2 1 1 1 1 1 1 1 1 1 1 2